DW8356 Weather Reports


Display with metric or nautical units.
time (UTC)temp
F
wind
direction
speed
MPH
gust
MPH
rain 1hr
in
rain 24hr
in
rain mn
in
humidity
%
barometer
mb
20260905204555 101 55 3.0 10.0 0.00 0.00 0.00 36 1012.0
20260905204025 102 0 1.0 5.0 0.00 0.00 0.00 36 1012.2
20260905203523 102 309 1.0 5.0 0.00 0.00 0.00 36 1012.3
20260905203044 102 167 0.0 4.0 0.00 0.00 0.00 36 1012.3
20260905202523 102 150 0.0 4.0 0.00 0.00 0.00 35 1012.3
20260905202021 102 138 1.0 4.0 0.00 0.00 0.00 35 1012.4
20260905201547 101 135 0.0 3.0 0.00 0.00 0.00 35 1012.5
20260905201026 101 0 0.0 9.0 0.00 0.00 0.00 35 1012.5
20260905200526 101 188 2.0 9.0 0.00 0.00 0.00 36 1012.6
20260905200055 101 215 1.0 6.0 0.00 0.00 0.00 37 1012.7
20260905195523 101 215 0.0 5.0 0.00 0.00 0.00 37 1012.8
20260905195024 101 246 0.0 6.0 0.00 0.00 0.00 37 1012.8
20260905194548 101 117 1.0 8.0 0.00 0.00 0.00 37 1012.8
20260905194024 101 120 2.0 8.0 0.00 0.00 0.00 37 1012.9
20260905193522 101 58 2.0 8.0 0.00 0.00 0.00 38 1013.0
20260905193052 100 330 1.0 8.0 0.00 0.00 0.00 38 1013.1
20260905192526 100 119 1.0 6.0 0.00 0.00 0.00 39 1013.2
20260905192021 100 185 1.0 6.0 0.00 0.00 0.00 37 1013.2
20260905191553 100 167 1.0 5.0 0.00 0.00 0.00 40 1013.4
20260905191021 99 66 2.0 5.0 0.00 0.00 0.00 39 1013.5
20260905190524 100 216 0.0 5.0 0.00 0.00 0.00 39 1013.6
20260905190049 100 248 1.0 5.0 0.00 0.00 0.00 41 1013.7
20260905185523 99 192 1.0 6.0 0.00 0.00 0.00 43 1013.7
20260905185026 98 176 2.0 6.0 0.00 0.00 0.00 42 1013.7
20260905184546 96 169 2.0 6.0 0.00 0.00 0.00 45 1013.9
20260905184023 96 134 2.0 6.0 0.00 0.00 0.00 44 1013.9
20260905183523 99 324 1.0 6.0 0.00 0.00 0.00 42 1014.0
20260905183047 99 0 0.0 5.0 0.00 0.00 0.00 43 1014.0
20260905182527 98 161 2.0 9.0 0.00 0.00 0.00 43 1014.1
20260905182026 97 205 2.0 9.0 0.00 0.00 0.00 44 1014.2
20260905181547 98 139 2.0 6.0 0.00 0.00 0.00 43 1014.3
20260905181020 99 210 1.0 4.0 0.00 0.00 0.00 43 1014.3
20260905180523 98 244 0.0 4.0 0.00 0.00 0.00 44 1014.4
20260905180044 98 188 0.0 5.0 0.00 0.00 0.00 44 1014.4
20260905175528 98 325 1.0 6.0 0.00 0.00 0.00 43 1014.5
20260905175022 98 168 1.0 6.0 0.00 0.00 0.00 43 1014.8
20260905174547 98 148 1.0 6.0 0.00 0.00 0.00 43 1014.9
20260905174021 97 89 1.0 7.0 0.00 0.00 0.00 44 1014.9
20260905173525 97 180 2.0 7.0 0.00 0.00 0.00 44 1015.0
20260905173044 97 170 1.0 6.0 0.00 0.00 0.00 45 1015.0
20260905172524 97 243 1.0 6.0 0.00 0.00 0.00 46 1015.0
20260905172024 96 131 2.0 6.0 0.00 0.00 0.00 47 1015.0
20260905171544 96 39 1.0 4.0 0.00 0.00 0.00 47 1015.0
20260905171023 96 0 0.0 4.0 0.00 0.00 0.00 47 1015.1
20260905170523 96 255 0.0 5.0 0.00 0.00 0.00 47 1015.1
20260905170053 96 0 1.0 5.0 0.00 0.00 0.00 49 1015.2
20260905165525 95 0 1.0 5.0 0.00 0.00 0.00 47 1015.1
20260905165024 96 222 1.0 5.0 0.00 0.00 0.00 47 1015.2
20260905164546 95 151 0.0 3.0 0.00 0.00 0.00 49 1015.1
20260905164023 95 0 0.0 3.0 0.00 0.00 0.00 49 1015.1
20260905163528 95 229 0.0 3.0 0.00 0.00 0.00 50 1015.2
20260905163046 94 271 1.0 3.0 0.00 0.00 0.00 50 1015.1
20260905162524 94 0 0.0 5.0 0.00 0.00 0.00 50 1015.2
20260905162024 94 188 1.0 6.0 0.00 0.00 0.00 51 1015.2
20260905161541 93 140 2.0 7.0 0.00 0.00 0.00 52 1015.1
20260905161023 92 149 2.0 7.0 0.00 0.00 0.00 53 1015.0
20260905160525 91 126 1.0 4.0 0.00 0.00 0.00 55 1015.1
20260905160050 91 36 1.0 4.0 0.00 0.00 0.00 55 1015.1
20260905155520 91 298 0.0 4.0 0.00 0.00 0.00 54 1015.2
20260905155025 91 244 0.0 4.0 0.00 0.00 0.00 55 1015.2
20260905154545 90 220 1.0 4.0 0.00 0.00 0.00 55 1015.2
20260905154024 91 185 1.0 4.0 0.00 0.00 0.00 55 1015.1
20260905153523 91 168 1.0 4.0 0.00 0.00 0.00 56 1015.1
20260905153044 91 0 0.0 2.0 0.00 0.00 0.00 56 1015.0
20260905152523 90 0 0.0 5.0 0.00 0.00 0.00 57 1015.1
20260905152023 89 0 2.0 5.0 0.00 0.00 0.00 59 1015.1
20260905151552 89 320 1.0 4.0 0.00 0.00 0.00 60 1015.1
20260905151021 89 238 0.0 4.0 0.00 0.00 0.00 61 1015.1
20260905150527 88 290 1.0 4.0 0.00 0.00 0.00 62 1015.0
20260905150055 89 346 2.0 4.0 0.00 0.00 0.00 61 1014.9
20260905145528 88 242 0.0 4.0 0.00 0.00 0.00 62 1014.9
20260905145024 88 0 0.0 4.0 0.00 0.00 0.00 63 1015.0
20260905144549 88 0 1.0 4.0 0.00 0.00 0.00 63 1015.0
20260905144025 87 200 0.0 3.0 0.00 0.00 0.00 64 1015.1
20260905143524 87 205 0.0 3.0 0.00 0.00 0.00 65 1015.0
20260905143049 87 250 0.0 3.0 0.00 0.00 0.00 64 1015.0
20260905142522 87 5 0.0 1.0 0.00 0.00 0.00 65 1014.9
20260905142023 86 0 0.0 2.0 0.00 0.00 0.00 66 1014.9
20260905141542 86 0 0.0 2.0 0.00 0.00 0.00 67 1015.0
20260905141026 85 258 0.0 2.0 0.00 0.00 0.00 68 1014.9
20260905140524 85 0 0.0 4.0 0.00 0.00 0.00 68 1014.9
20260905140048 85 0 0.0 4.0 0.00 0.00 0.00 68 1015.0
20260905135525 85 0 0.0 3.0 0.00 0.00 0.00 68 1015.0
20260905135024 84 0 0.0 3.0 0.00 0.00 0.00 69 1014.9
20260905134545 84 0 0.0 1.0 0.00 0.00 0.00 71 1015.0
20260905134025 83 252 0.0 2.0 0.00 0.00 0.00 71 1015.0
20260905133526 83 0 0.0 2.0 0.00 0.00 0.00 72 1014.8
20260905133047 83 0 0.0 2.0 0.00 0.00 0.00 72 1014.7
20260905132525 82 0 0.0 2.0 0.00 0.00 0.00 73 1014.7
20260905132035 82 0 0.0 2.0 0.00 0.00 0.00 74 1014.6
20260905131550 81 0 0.0 1.0 0.00 0.00 0.00 75 1014.6
20260905131028 81 0 0.0 1.0 0.00 0.00 0.00 75 1014.5
20260905130524 80 0 0.0 1.0 0.00 0.00 0.00 76 1014.4
20260905130044 80 211 0.0 1.0 0.00 0.00 0.00 77 1014.3
20260905125526 80 0 0.0 1.0 0.00 0.00 0.00 77 1014.3
20260905125023 80 0 0.0 1.0 0.00 0.00 0.00 77 1014.4
20260905124543 79 0 0.0 1.0 0.00 0.00 0.00 77 1014.3
20260905124028 79 0 0.0 1.0 0.00 0.00 0.00 78 1014.3
20260905123525 79 0 0.0 1.0 0.00 0.00 0.00 77 1014.2
20260905123046 79 0 0.0 1.0 0.00 0.00 0.00 77 1014.1
20260905122528 79 0 0.0 1.0 0.00 0.00 0.00 77 1014.0
20260905122025 79 0 0.0 1.0 0.00 0.00 0.00 78 1013.9
20260905121544 79 0 0.0 1.0 0.00 0.00 0.00 77 1013.9
20260905121028 79 0 0.0 1.0 0.00 0.00 0.00 77 1013.8
20260905120524 79 157 0.0 1.0 0.00 0.00 0.00 77 1013.8
20260905120042 79 0 0.0 1.0 0.00 0.00 0.00 77 1013.9
20260905115522 79 218 0.0 1.0 0.00 0.00 0.00 77 1013.9
20260905115021 79 218 0.0 1.0 0.00 0.00 0.00 77 1013.9
20260905114547 79 0 0.0 1.0 0.00 0.00 0.00 77 1013.8
20260905114025 79 218 0.0 1.0 0.00 0.00 0.00 77 1013.9
20260905113526 79 0 0.0 1.0 0.00 0.00 0.00 77 1013.9
20260905113045 79 0 0.0 1.0 0.00 0.00 0.00 77 1013.9
20260905112524 79 0 0.0 1.0 0.00 0.00 0.00 77 1014.0
20260905112020 79 0 0.0 1.0 0.00 0.00 0.00 77 1013.9
20260905111602 79 0 0.0 1.0 0.00 0.00 0.00 76 1014.0
20260905111025 79 0 0.0 1.0 0.00 0.00 0.00 76 1013.9
20260905110522 79 0 0.0 1.0 0.00 0.00 0.00 76 1014.0
20260905110039 79 0 0.0 1.0 0.00 0.00 0.00 76 1014.0
20260905105524 79 218 0.0 1.0 0.00 0.00 0.00 76 1014.0
20260905105020 79 0 0.0 0.0 0.00 0.00 0.00 76 1014.0
20260905104545 79 0 0.0 0.0 0.00 0.00 0.00 75 1014.0
20260905104021 79 0 0.0 0.0 0.00 0.00 0.00 75 1014.0
20260905103524 79 0 0.0 0.0 0.00 0.00 0.00 75 1014.0
20260905103047 80 0 0.0 0.0 0.00 0.00 0.00 75 1014.1
20260905102527 80 0 0.0 0.0 0.00 0.00 0.00 74 1014.0
20260905102023 80 0 0.0 1.0 0.00 0.00 0.00 74 1014.0
20260905101547 80 0 0.0 1.0 0.00 0.00 0.00 73 1014.0
20260905101022 80 0 0.0 1.0 0.00 0.00 0.00 72 1013.9
20260905100523 80 0 0.0 1.0 0.00 0.00 0.00 73 1013.9
20260905100055 80 0 0.0 1.0 0.00 0.00 0.00 73 1014.0
20260905095524 80 0 0.0 1.0 0.00 0.00 0.00 72 1014.0
20260905095024 80 0 0.0 1.0 0.00 0.00 0.00 72 1014.0
20260905094547 80 0 0.0 1.0 0.00 0.00 0.00 72 1013.9
20260905094026 81 0 0.0 1.0 0.00 0.00 0.00 71 1013.8
20260905093525 81 0 0.0 1.0 0.00 0.00 0.00 71 1013.8
20260905093044 81 0 0.0 1.0 0.00 0.00 0.00 71 1013.8
20260905092522 81 0 0.0 1.0 0.00 0.00 0.00 71 1013.7
20260905092023 81 0 0.0 1.0 0.00 0.00 0.00 71 1013.7
20260905091556 81 0 0.0 1.0 0.00 0.00 0.00 70 1013.7
20260905091022 81 0 0.0 1.0 0.00 0.00 0.00 70 1013.6
20260905090525 81 0 0.0 1.0 0.00 0.00 0.00 69 1013.6
20260905090045 81 0 0.0 0.0 0.00 0.00 0.00 69 1013.7
20260905085527 81 0 0.0 0.0 0.00 0.00 0.00 69 1013.6
20260905085027 81 0 0.0 0.0 0.00 0.00 0.00 68 1013.6
20260905084551 82 0 0.0 1.0 0.00 0.00 0.00 68 1013.6
20260905084024 82 0 0.0 1.0 0.00 0.00 0.00 68 1013.5
20260905083523 82 0 0.0 1.0 0.00 0.00 0.00 68 1013.5
20260905083042 82 218 0.0 1.0 0.00 0.00 0.00 68 1013.5
20260905082524 82 218 0.0 1.0 0.00 0.00 0.00 68 1013.5
20260905082025 82 218 0.0 1.0 0.00 0.00 0.00 68 1013.6
20260905081550 82 218 0.0 1.0 0.00 0.00 0.00 67 1013.6
20260905081024 82 0 0.0 1.0 0.00 0.00 0.00 68 1013.6
20260905080523 82 0 0.0 1.0 0.00 0.00 0.00 68 1013.6
20260905080053 82 0 0.0 1.0 0.00 0.00 0.00 67 1013.5
20260905075528 82 0 0.0 1.0 0.00 0.00 0.00 68 1013.5
20260905075026 83 202 0.0 1.0 0.00 0.00 0.00 67 1013.6
20260905074545 83 0 0.0 1.0 0.00 0.00 0.00 67 1013.6
20260905074028 83 0 0.0 1.0 0.00 0.00 0.00 67 1013.5
20260905073524 83 0 0.0 1.0 0.00 0.00 0.00 66 1013.6
20260905073043 83 0 0.0 2.0 0.00 0.00 0.00 66 1013.7
20260905072521 84 0 0.0 2.0 0.00 0.00 0.00 66 1013.7
20260905072023 84 203 0.0 3.0 0.00 0.00 0.00 66 1013.7
20260905071552 84 221 0.0 3.0 0.00 0.00 0.00 66 1013.8
20260905071025 84 175 1.0 3.0 0.00 0.00 0.00 66 1013.8
20260905070524 84 166 0.0 2.0 0.00 0.00 0.00 66 1013.9
20260905070046 84 0 0.0 2.0 0.00 0.00 0.00 65 1013.8
20260905065523 84 223 0.0 2.0 0.00 0.00 0.00 65 1013.9
20260905065024 84 229 1.0 3.0 0.00 0.00 0.00 66 1013.9
20260905064547 84 190 0.0 4.0 0.00 0.00 0.00 66 1013.9
20260905064023 84 191 1.0 4.0 0.00 0.00 0.00 66 1013.9
20260905063523 84 164 0.0 3.0 0.00 0.00 0.00 66 1013.9
20260905063053 84 171 1.0 3.0 0.00 0.00 0.00 66 1013.9
20260905062525 84 184 1.0 3.0 0.00 0.00 0.00 66 1014.0
20260905062024 84 179 0.0 3.0 0.00 0.00 0.00 66 1014.0
20260905061605 84 0 0.0 2.0 0.00 0.00 0.00 66 1014.0
20260905061024 84 197 0.0 1.0 0.00 0.00 0.00 66 1014.0
20260905060525 84 197 0.0 1.0 0.00 0.00 0.00 65 1014.0
20260905060046 84 0 0.0 1.0 0.00 0.00 0.00 66 1013.9
20260905055520 84 0 0.0 1.0 0.00 0.00 0.00 65 1013.9
20260905055027 84 0 0.0 1.0 0.00 0.00 0.00 65 1013.9
20260905054544 85 0 0.0 1.0 0.00 0.00 0.00 64 1013.9
20260905054019 85 0 0.0 1.0 0.00 0.00 0.00 64 1013.9
20260905053521 85 0 0.0 1.0 0.00 0.00 0.00 64 1013.8
20260905053045 85 0 0.0 1.0 0.00 0.00 0.00 63 1013.9
20260905052524 85 0 0.0 2.0 0.00 0.00 0.00 62 1013.7
20260905052024 86 0 0.0 2.0 0.00 0.00 0.00 62 1013.7
20260905051545 86 0 0.0 2.0 0.00 0.00 0.00 62 1013.6
20260905051024 86 0 0.0 3.0 0.00 0.00 0.00 61 1013.6
20260905050524 86 0 0.0 3.0 0.00 0.00 0.00 61 1013.5
20260905050046 86 182 1.0 3.0 0.00 0.00 0.00 61 1013.5
20260905045520 86 182 1.0 4.0 0.00 0.00 0.00 61 1013.6
20260905045021 86 183 1.0 4.0 0.00 0.00 0.00 61 1013.7
20260905044544 86 189 1.0 3.0 0.00 0.00 0.00 61 1013.7
20260905044019 86 185 0.0 6.0 0.00 0.00 0.00 60 1013.7
20260905043524 86 0 1.0 6.0 0.00 0.00 0.00 60 1013.7
20260905043043 86 0 0.0 6.0 0.00 0.00 0.00 60 1013.6
20260905042521 86 156 1.0 6.0 0.00 0.00 0.00 59 1013.6
20260905042021 86 0 1.0 5.0 0.00 0.00 0.00 58 1013.6
20260905041550 87 161 1.0 4.0 0.00 0.00 0.00 58 1013.6
20260905041024 87 0 0.0 4.0 0.00 0.00 0.00 59 1013.5
20260905040524 87 178 1.0 4.0 0.00 0.00 0.00 58 1013.6
20260905040049 87 192 1.0 4.0 0.00 0.00 0.00 58 1013.6
20260905035523 87 156 1.0 4.0 0.00 0.00 0.00 57 1013.6
20260905035023 87 205 1.0 4.0 0.00 0.00 0.00 58 1013.5
20260905034545 87 157 1.0 4.0 0.00 0.00 0.00 57 1013.4
20260905034021 87 180 1.0 4.0 0.00 0.00 0.00 57 1013.5
20260905033522 88 168 1.0 4.0 0.00 0.00 0.00 57 1013.5
20260905033041 88 0 0.0 4.0 0.00 0.00 0.00 57 1013.5
20260905032526 88 162 1.0 4.0 0.00 0.00 0.00 57 1013.5
20260905032024 88 204 1.0 4.0 0.00 0.00 0.00 56 1013.5
20260905031545 88 0 1.0 5.0 0.00 0.00 0.00 56 1013.5
20260905031024 88 183 1.0 5.0 0.00 0.00 0.00 55 1013.5
20260905030525 88 196 1.0 4.0 0.00 0.00 0.00 55 1013.5
20260905030057 88 0 1.0 3.0 0.00 0.00 0.00 55 1013.5
20260905025524 88 144 0.0 4.0 0.00 0.00 0.00 54 1013.4
20260905025025 88 0 0.0 4.0 0.00 0.00 0.00 54 1013.4
20260905024541 89 161 0.0 3.0 0.00 0.00 0.00 54 1013.3
20260905024024 89 167 0.0 3.0 0.00 0.00 0.00 53 1013.3
20260905023524 89 171 0.0 3.0 0.00 0.00 0.00 53 1013.3
20260905023047 89 163 0.0 3.0 0.00 0.00 0.00 53 1013.2
20260905022524 89 194 0.0 3.0 0.00 0.00 0.00 52 1013.1
20260905022025 89 0 1.0 4.0 0.00 0.00 0.00 51 1013.0
20260905021546 90 0 1.0 4.0 0.00 0.00 0.00 51 1012.9
20260905021020 90 0 1.0 3.0 0.00 0.00 0.00 51 1012.8
20260905020524 90 169 0.0 2.0 0.00 0.00 0.00 50 1012.8
20260905020057 90 164 0.0 3.0 0.00 0.00 0.00 50 1012.8
20260905015518 90 207 1.0 5.0 0.00 0.00 0.00 49 1012.7
20260905015023 90 167 2.0 5.0 0.00 0.00 0.00 49 1012.7
20260905014550 91 0 1.0 5.0 0.00 0.00 0.00 49 1012.5
20260905014024 91 0 1.0 4.0 0.00 0.00 0.00 49 1012.4
20260905013524 91 173 1.0 3.0 0.00 0.00 0.00 48 1012.4
20260905013047 91 178 1.0 6.0 0.00 0.00 0.00 48 1012.3
20260905012524 91 192 1.0 6.0 0.00 0.00 0.00 48 1012.2
20260905012024 91 171 1.0 5.0 0.00 0.00 0.00 47 1012.2
20260905011545 92 182 1.0 5.0 0.00 0.00 0.00 47 1012.2
20260905011024 92 171 1.0 6.0 0.00 0.00 0.00 46 1012.2
20260905010522 92 161 1.0 6.0 0.00 0.00 0.00 46 1012.2
20260905010048 92 171 1.0 5.0 0.00 0.00 0.00 46 1012.1
20260905005527 92 148 1.0 9.0 0.00 0.00 0.00 46 1012.0
20260905005025 93 171 2.0 9.0 0.00 0.00 0.00 46 1012.0
20260905004603 93 162 2.0 8.0 0.00 0.00 0.00 45 1012.0
20260905004023 93 152 1.0 8.0 0.00 0.00 0.00 45 1012.0
20260905003524 93 181 1.0 8.0 0.00 0.00 0.00 46 1011.9
20260905003044 93 164 2.0 8.0 0.00 0.00 0.00 46 1011.9
20260905002526 94 0 1.0 8.0 0.00 0.00 0.00 46 1011.8
20260905002027 94 0 2.0 8.0 0.00 0.00 0.00 45 1011.7
20260905001544 94 173 2.0 8.0 0.00 0.00 0.00 45 1011.7
20260905001026 94 160 2.0 8.0 0.00 0.00 0.00 45 1011.7
20260905000519 94 182 2.0 7.0 0.00 0.00 0.00 45 1011.7
20260905000043 94 166 1.0 10.0 0.00 0.00 0.00 46 1011.7
20260904235522 95 147 2.0 10.0 0.00 0.00 0.00 44 1011.7
20260904235027 95 255 3.0 8.0 0.00 0.00 0.00 44 1011.6
20260904234548 95 186 3.0 9.0 0.00 0.00 0.00 45 1011.6
20260904234024 95 246 3.0 9.0 0.00 0.00 0.00 44 1011.6
20260904233524 95 173 2.0 9.0 0.00 0.00 0.00 44 1011.6
20260904233051 96 161 2.0 9.0 0.00 0.00 0.00 44 1011.6
20260904232525 96 151 3.0 11.0 0.00 0.00 0.00 44 1011.6
20260904232024 96 146 2.0 11.0 0.00 0.00 0.00 44 1011.6
20260904231544 97 217 4.0 10.0 0.00 0.00 0.00 43 1011.5
20260904231023 97 215 3.0 8.0 0.00 0.00 0.00 44 1011.5
20260904230523 97 193 1.0 8.0 0.00 0.00 0.00 44 1011.5
20260904230043 97 0 2.0 10.0 0.00 0.00 0.00 43 1011.5
20260904225525 97 169 3.0 10.0 0.00 0.00 0.00 42 1011.5
20260904225024 98 138 2.0 10.0 0.00 0.00 0.00 42 1011.6
20260904224549 98 151 2.0 10.0 0.00 0.00 0.00 42 1011.7
20260904224026 99 123 2.0 7.0 0.00 0.00 0.00 41 1011.7
20260904223524 100 190 3.0 10.0 0.00 0.00 0.00 41 1011.7
20260904223045 100 179 2.0 10.0 0.00 0.00 0.00 40 1011.7
20260904222523 100 185 3.0 10.0 0.00 0.00 0.00 40 1011.8
20260904222024 100 197 2.0 10.0 0.00 0.00 0.00 41 1011.7
20260904221549 100 182 0.0 7.0 0.00 0.00 0.00 40 1011.7
20260904221024 99 192 1.0 7.0 0.00 0.00 0.00 41 1011.7
20260904220521 99 150 1.0 10.0 0.00 0.00 0.00 40 1011.8
20260904220044 99 187 3.0 10.0 0.00 0.00 0.00 41 1011.8
20260904215525 99 161 1.0 8.0 0.00 0.00 0.00 41 1011.9
20260904215026 99 172 2.0 8.0 0.00 0.00 0.00 41 1012.1
20260904214545 98 194 0.0 5.0 0.00 0.00 0.00 43 1012.0
20260904214024 97 179 0.0 8.0 0.00 0.00 0.00 43 1012.1
20260904213524 98 111 2.0 10.0 0.00 0.00 0.00 42 1012.1
20260904213045 98 0 1.0 11.0 0.00 0.00 0.00 41 1012.1
20260904212521 99 190 3.0 13.0 0.00 0.00 0.00 42 1012.1
20260904212024 98 159 2.0 13.0 0.00 0.00 0.00 42 1012.1
20260904211545 97 99 2.0 8.0 0.00 0.00 0.00 43 1012.2
20260904211025 98 241 2.0 11.0 0.00 0.00 0.00 42 1012.4
20260904210524 99 158 3.0 11.0 0.00 0.00 0.00 41 1012.4
20260904210052 100 168 2.0 9.0 0.00 0.00 0.00 41 1012.5
20260904205529 100 157 2.0 9.0 0.00 0.00 0.00 41 1012.5
20260904205025 100 135 3.0 9.0 0.00 0.00 0.00 41 1012.5